Location: Bijele Vode
(45.2833°N, 16.2000°E)
Time: 14:27:50
(UTC+00:00)

SJ-6B - Pass Details

Date: 18 September 2020
Orbit: 511 x 580 km, 97.6° (Epoch: 30 October)

Event Time Altitude Azimuth Distance (km) Brightness Sun altitude
Exits shadow 19:22:17 24° 227° (SW) 1,092 4.4 -24.7°
Maximum altitude 19:23:34 30° 263° (W) 936 4.4 -24.9°
Drops below altitude 10° 19:26:56 10° 327° (NNW) 1,749 6.2 -25.4°
Sets 19:29:14 0° 338° (NNW) 2,647 7.1 -25.8°
